TimeEDT,TemperatureF,Dew PointF,Humidity,Sea Level PressureIn,VisibilityMPH,Wind Direction,Wind SpeedMPH,Gust SpeedMPH,PrecipitationIn,Events,Conditions,WindDirDegrees,DateUTC
12:53 AM,71.1,66.9,87,29.85,10.0,Calm,Calm,-,N/A,,Clear,0,2013-07-01 04:53:00
1:53 AM,70.0,66.9,90,29.85,10.0,Calm,Calm,-,N/A,,Clear,0,2013-07-01 05:53:00
2:53 AM,70.0,68.0,93,29.84,7.0,Calm,Calm,-,N/A,,Clear,0,2013-07-01 06:53:00
3:53 AM,71.1,68.0,90,29.84,7.0,Calm,Calm,-,N/A,,Partly Cloudy,0,2013-07-01 07:53:00
4:53 AM,70.0,68.0,93,29.85,5.0,Calm,Calm,-,N/A,,Mostly Cloudy,0,2013-07-01 08:53:00
5:53 AM,70.0,68.0,93,29.87,6.0,Calm,Calm,-,N/A,,Overcast,0,2013-07-01 09:53:00
6:53 AM,71.1,68.0,90,29.89,6.0,Calm,Calm,-,0.00,,Overcast,0,2013-07-01 10:53:00
7:53 AM,72.0,69.1,91,29.90,9.0,Calm,Calm,-,0.00,,Overcast,0,2013-07-01 11:53:00
8:53 AM,73.9,69.1,85,29.90,10.0,SE,3.5,-,N/A,,Overcast,140,2013-07-01 12:53:00
9:36 AM,75.2,69.8,83,29.91,10.0,Calm,Calm,-,N/A,,Overcast,0,2013-07-01 13:36:00
9:53 AM,75.9,69.1,79,29.91,10.0,Variable,3.5,-,N/A,,Overcast,0,2013-07-01 13:53:00
10:53 AM,75.9,69.1,79,29.92,10.0,SSE,9.2,-,N/A,,Overcast,160,2013-07-01 14:53:00
11:23 AM,75.2,69.8,83,29.93,8.0,SE,5.8,-,0.00,Rain,Light Rain,140,2013-07-01 15:23:00
11:53 AM,75.0,71.1,87,29.91,9.0,South,5.8,-,0.00,Rain,Light Rain,170,2013-07-01 15:53:00
12:53 PM,75.9,70.0,82,29.91,10.0,SE,5.8,-,0.00,,Overcast,140,2013-07-01 16:53:00
1:53 PM,79.0,69.1,72,29.90,10.0,SE,8.1,-,N/A,,Mostly Cloudy,140,2013-07-01 17:53:00
2:01 PM,78.8,68.0,69,29.91,10.0,South,9.2,-,N/A,,Mostly Cloudy,180,2013-07-01 18:01:00
2:15 PM,80.6,69.8,70,29.92,10.0,South,8.1,-,N/A,,Mostly Cloudy,170,2013-07-01 18:15:00
2:53 PM,81.0,68.0,65,29.91,10.0,SSE,9.2,-,N/A,,Mostly Cloudy,160,2013-07-01 18:53:00
3:53 PM,81.0,68.0,65,29.90,10.0,SSE,9.2,-,N/A,,Mostly Cloudy,160,2013-07-01 19:53:00
4:53 PM,82.9,68.0,60,29.90,10.0,SSE,9.2,-,N/A,,Clear,150,2013-07-01 20:53:00
5:53 PM,82.9,69.1,63,29.90,10.0,South,10.4,-,N/A,,Partly Cloudy,180,2013-07-01 21:53:00
6:53 PM,80.1,68.0,67,29.91,10.0,SE,9.2,-,N/A,,Partly Cloudy,140,2013-07-01 22:53:00
7:53 PM,79.0,69.1,72,29.93,10.0,SSE,6.9,-,N/A,,Clear,160,2013-07-01 23:53:00
8:53 PM,77.0,68.0,74,29.94,10.0,SSE,5.8,-,N/A,,Clear,150,2013-07-02 00:53:00
9:53 PM,75.9,68.0,76,29.95,10.0,Calm,Calm,-,N/A,,Partly Cloudy,0,2013-07-02 01:53:00
10:42 PM,73.4,69.8,88,29.97,10.0,SE,3.5,-,N/A,,Mostly Cloudy,130,2013-07-02 02:42:00
10:53 PM,73.9,69.1,85,29.96,10.0,ESE,3.5,-,N/A,,Mostly Cloudy,120,2013-07-02 02:53:00
11:53 PM,73.9,69.1,85,29.96,10.0,SE,4.6,-,N/A,,Partly Cloudy,130,2013-07-02 03:53:00